SCP
0 0 0 0 0 0 0 0 0 0 0 0 0 0 0 0 0 0 0 0 0 0
0 0 0 0 0 0 0 0 0 0 0 0 0 0 0 0 0 0 0 0 0 0
0 0 0 0 0 0 0 0 0 0 0 0 0 0 0 0 0 0 0 0 0 0
0 0 0 0 0 0 0 0 0 0 0 0 0 0 0 0 0 0 0 0 0 0
0 0 0 0 0 0 0 0 0 0 0 0 0 0 0 0 0 0 0 0 0 0
0 0 0 0 0 0 0 0 0 0 0 0 0 0 0 0 0 0 0 0 0 0
0 0 0 0 0 0 0 0 0 0 0 0 0 0 0 0 0 0 0 0 0 0
0 0 0 0 0 0 0 0 0 0 0 0 0 0 0 0 0 0 0 0 0 0
0 0 0 0 0 0 0 0 0 0 0 0 0 0 0 0 0 0 0 0 0 0
0 0 0 0 0 0 0 0 0 0 0 0 0 0 0 0 0 0 0 0 0 0
0 0 0 0 0 0 0 0 0 0 0 0 0 0 0 0 0 0 0 0 0 0
0 0 0 0 0 0 0 0 0 0 0 0 0 0 0 0 0 0 0 0 0 0
0 0 0 0 0 0 0 0 0 0 0 0 0 0 0 0 0 0 0 0 0 0
0 0 0 0 0 0 0 0 0 0 0 0 0 0 0 0 0 0 0 0 0 0
Wind_Speed_500mb
30 28 30 33 31 35 37 38 38 40 39 42 43 41 38 34 32 32 33 35 35 31
30 30 32 36 40 43 44 45 44 45 43 39 35 30 25 24 24 25 25 26 26 26
32 32 34 35 38 38 39 38 37 35 31 28 27 25 25 25 25 25 25 24 22 21
35 36 35 35 35 34 33 32 32 30 30 30 31 31 30 29 28 28 27 27 25 24
40 41 41 40 38 36 34 34 33 33 33 33 33 32 31 30 30 29 29 28 27 26
46 46 46 43 41 40 38 38 37 37 36 35 35 35 35 34 33 34 33 30 28 27
52 49 48 48 48 47 45 44 42 41 39 38 36 34 34 35 36 35 35 34 33 31
57 55 57 58 57 54 51 48 46 44 41 39 39 38 37 38 39 40 39 37 34 28
66 65 66 66 64 60 57 54 50 47 45 43 43 44 46 45 44 44 41 37 33 29
74 72 72 70 67 63 61 56 53 51 49 47 47 48 51 52 47 42 39 36 32 27
83 80 77 73 70 67 65 62 58 56 53 50 49 49 53 52 49 44 39 35 32 27
93 89 83 79 76 72 67 63 60 56 53 50 46 45 54 52 47 44 40 37 32 28
95 89 82 77 74 70 67 63 61 59 56 51 47 44 53 52 47 44 40 36 32 30
87 84 79 76 74 70 68 65 63 60 57 53 50 49 48 49 44 41 39 36 32 28
Wind_Direction_500mb
270 266 255 249 255 258 258 254 256 260 262 265 267 265 262 258 254 247 242 242 243 239
268 264 257 251 252 252 253 257 259 261 261 259 256 251 244 239 236 233 231 228 226 225
262 261 259 255 252 251 251 251 251 248 245 241 240 238 236 235 232 228 225 221 219 221
259 259 256 252 248 245 241 239 235 232 231 232 233 234 234 232 228 222 216 211 207 203
255 255 253 250 246 241 237 235 235 235 237 238 237 235 233 230 226 221 212 204 198 194
249 248 248 245 242 241 240 240 241 241 240 239 236 231 226 224 219 212 206 198 191 192
249 247 247 245 243 242 241 242 240 239 238 236 233 229 226 222 218 211 202 198 196 197
250 246 245 243 241 241 241 240 238 236 234 231 228 227 225 220 214 210 206 202 202 203
247 245 243 243 242 240 238 236 232 231 231 231 229 228 221 217 214 211 210 212 209 210
247 244 241 240 238 237 235 232 231 230 229 227 226 226 223 221 216 215 214 215 215 217
247 244 241 239 237 235 233 232 230 228 226 224 224 224 220 219 218 219 220 222 224 223
247 243 239 237 235 232 231 229 227 226 225 222 223 226 220 217 215 217 219 220 221 226
243 240 239 238 235 233 230 228 225 221 219 221 220 226 222 217 218 218 219 220 223 229
245 242 241 238 235 232 229 224 221 219 218 219 225 221 215 214 218 219 223 225 229 234
Wind_Speed_850mb
30 28 30 33 31 35 37 38 38 40 39 42 43 41 38 34 32 32 33 35 35 31
30 30 32 36 40 43 44 45 44 45 43 39 35 30 25 24 24 25 25 26 26 26
32 32 34 35 38 38 39 38 37 35 31 28 27 25 25 25 25 25 25 24 22 21
35 36 35 35 35 34 33 32 32 30 30 30 31 31 30 29 28 28 27 27 25 24
40 41 41 40 38 36 34 34 33 33 33 33 33 32 31 30 30 29 29 28 27 26
46 46 46 43 41 40 38 38 37 37 36 35 35 35 35 34 33 34 33 30 28 27
52 49 48 48 48 47 45 44 42 41 39 38 36 34 34 35 36 35 35 34 33 31
57 55 57 58 57 54 51 48 46 44 41 39 39 38 37 38 39 40 39 37 34 28
66 65 66 66 64 60 57 54 50 47 45 43 43 44 46 45 44 44 41 37 33 29
74 72 72 70 67 63 61 56 53 51 49 47 47 48 51 52 47 42 39 36 32 27
83 80 77 73 70 67 65 62 58 56 53 50 49 49 53 52 49 44 39 35 32 27
93 89 83 79 76 72 67 63 60 56 53 50 46 45 54 52 47 44 40 37 32 28
95 89 82 77 74 70 67 63 61 59 56 51 47 44 53 52 47 44 40 36 32 30
87 84 79 76 74 70 68 65 63 60 57 53 50 49 48 49 44 41 39 36 32 28
Wind_Direction_850mb
270 266 255 249 255 258 258 254 256 260 262 265 267 265 262 258 254 247 242 242 243 239
268 264 257 251 252 252 253 257 259 261 261 259 256 251 244 239 236 233 231 228 226 225
262 261 259 255 252 251 251 251 251 248 245 241 240 238 236 235 232 228 225 221 219 221
259 259 256 252 248 245 241 239 235 232 231 232 233 234 234 232 228 222 216 211 207 203
255 255 253 250 246 241 237 235 235 235 237 238 237 235 233 230 226 221 212 204 198 194
249 248 248 245 242 241 240 240 241 241 240 239 236 231 226 224 219 212 206 198 191 192
249 247 247 245 243 242 241 242 240 239 238 236 233 229 226 222 218 211 202 198 196 197
250 246 245 243 241 241 241 240 238 236 234 231 228 227 225 220 214 210 206 202 202 203
247 245 243 243 242 240 238 236 232 231 231 231 229 228 221 217 214 211 210 212 209 210
247 244 241 240 238 237 235 232 231 230 229 227 226 226 223 221 216 215 214 215 215 217
247 244 241 239 237 235 233 232 230 228 226 224 224 224 220 219 218 219 220 222 224 223
247 243 239 237 235 232 231 229 227 226 225 222 223 226 220 217 215 217 219 220 221 226
243 240 239 238 235 233 230 228 225 221 219 221 220 226 222 217 218 218 219 220 223 229
245 242 241 238 235 232 229 224 221 219 218 219 225 221 215 214 218 219 223 225 229 234